Time,TemperatureF,DewpointF,PressureIn,WindDirection,WindDirectionDegrees,WindSpeedMPH,WindSpeedGustMPH,Humidity,HourlyPrecipIn,Conditions,Clouds,dailyrainin,SoftwareType,DateUTC
2013-01-06 00:00:00,36.0,26.1,30.19,ENE,68,0.0,8.0,67,0.00,,,0.00,Wunderground v.1.13,2013-01-06 05:00:00,
2013-01-06 00:05:00,36.0,26.1,30.18,NNE,32,0.0,8.0,67,0.00,,,0.00,Wunderground v.1.13,2013-01-06 05:05:00,
2013-01-06 00:10:00,36.0,26.1,30.18,ENE,68,0.0,8.0,67,0.00,,,0.00,Wunderground v.1.13,2013-01-06 05:10:00,
2013-01-06 00:15:00,36.0,26.5,30.18,ENE,68,0.0,8.0,68,0.00,,,0.00,Wunderground v.1.13,2013-01-06 05:15:00,
2013-01-06 00:20:00,35.9,26.4,30.18,ENE,68,0.0,8.0,68,0.00,,,0.00,Wunderground v.1.13,2013-01-06 05:20:00,
2013-01-06 00:25:00,35.9,26.4,30.18,ENE,68,0.0,8.0,68,0.00,,,0.00,Wunderground v.1.13,2013-01-06 05:25:00,
2013-01-06 00:30:00,35.8,26.3,30.18,ENE,68,0.0,8.0,68,0.00,,,0.00,Wunderground v.1.13,2013-01-06 05:30:00,
2013-01-06 00:35:00,35.6,26.1,30.18,ENE,68,0.0,8.0,68,0.00,,,0.00,Wunderground v.1.13,2013-01-06 05:35:00,
2013-01-06 00:45:00,35.5,26.3,30.18,ENE,68,1.0,8.0,69,0.00,,,0.00,Wunderground v.1.13,2013-01-06 05:45:00,
2013-01-06 00:50:00,35.5,26.3,30.17,ENE,68,0.0,8.0,69,0.00,,,0.00,Wunderground v.1.13,2013-01-06 05:50:00,
2013-01-06 00:55:00,35.5,26.3,30.17,ENE,72,1.0,1.0,69,0.00,,,0.00,Wunderground v.1.13,2013-01-06 05:55:00,
2013-01-06 01:00:00,35.6,26.1,30.17,ENE,72,1.0,1.0,68,0.00,,,0.00,Wunderground v.1.13,2013-01-06 06:00:00,
2013-01-06 01:05:00,35.6,26.1,30.16,NE,38,1.0,1.0,68,0.00,,,0.00,Wunderground v.1.13,2013-01-06 06:05:00,
2013-01-06 01:10:00,35.6,26.1,30.16,North,3,1.0,8.0,68,0.00,,,0.00,Wunderground v.1.13,2013-01-06 06:10:00,
2013-01-06 01:15:00,35.6,26.1,30.16,East,92,1.0,1.0,68,0.00,,,0.00,Wunderground v.1.13,2013-01-06 06:15:00,
2013-01-06 01:20:00,35.6,26.1,30.16,East,90,1.0,1.0,68,0.00,,,0.00,Wunderground v.1.13,2013-01-06 06:20:00,
2013-01-06 01:25:00,35.5,26.0,30.16,East,90,1.0,1.0,68,0.00,,,0.00,Wunderground v.1.13,2013-01-06 06:25:00,
2013-01-06 01:30:00,35.5,26.3,30.16,ENE,65,1.0,1.0,69,0.00,,,0.00,Wunderground v.1.13,2013-01-06 06:30:00,
2013-01-06 01:35:00,35.3,26.1,30.15,ENE,66,1.0,1.0,69,0.00,,,0.00,Wunderground v.1.13,2013-01-06 06:35:00,
2013-01-06 01:45:00,35.3,26.1,30.15,East,83,1.0,1.0,69,0.00,,,0.00,Wunderground v.1.13,2013-01-06 06:45:00,
2013-01-06 01:50:00,35.3,26.5,30.15,East,83,1.0,1.0,70,0.00,,,0.00,Wunderground v.1.13,2013-01-06 06:50:00,
2013-01-06 01:55:00,35.3,26.5,30.15,ENE,78,1.0,1.0,70,0.00,,,0.00,Wunderground v.1.13,2013-01-06 06:55:00,
2013-01-06 02:00:00,35.5,26.3,30.15,ENE,78,1.0,8.0,69,0.00,,,0.00,Wunderground v.1.13,2013-01-06 07:00:00,
2013-01-06 02:05:00,35.5,26.3,30.15,ENE,73,1.0,1.0,69,0.00,,,0.00,Wunderground v.1.13,2013-01-06 07:05:00,
2013-01-06 02:10:00,35.5,26.3,30.15,NNE,32,2.0,2.0,69,0.00,,,0.00,Wunderground v.1.13,2013-01-06 07:10:00,
2013-01-06 02:15:00,35.6,26.4,30.15,East,80,2.0,8.0,69,0.00,,,0.00,Wunderground v.1.13,2013-01-06 07:15:00,
2013-01-06 02:20:00,35.8,26.6,30.15,ENE,73,2.0,2.0,69,0.00,,,0.00,Wunderground v.1.13,2013-01-06 07:20:00,
2013-01-06 02:25:00,35.8,26.6,30.15,NNE,28,2.0,8.0,69,0.00,,,0.00,Wunderground v.1.13,2013-01-06 07:25:00,
2013-01-06 02:30:00,35.9,26.7,30.15,NE,42,2.0,8.0,69,0.00,,,0.00,Wunderground v.1.13,2013-01-06 07:30:00,
2013-01-06 02:35:00,35.9,26.4,30.14,NE,34,2.0,2.0,68,0.00,,,0.00,Wunderground v.1.13,2013-01-06 07:35:00,
2013-01-06 02:40:00,36.0,26.5,30.14,ENE,76,3.0,8.0,68,0.00,,,0.00,Wunderground v.1.13,2013-01-06 07:40:00,
2013-01-06 02:50:00,36.2,26.6,30.14,ENE,73,2.0,8.0,68,0.00,,,0.00,Wunderground v.1.13,2013-01-06 07:50:00,
2013-01-06 02:55:00,36.3,26.7,30.14,East,92,1.0,8.0,68,0.00,,,0.00,Wunderground v.1.13,2013-01-06 07:55:00,
2013-01-06 03:00:00,36.5,26.9,30.14,ENE,59,1.0,8.0,68,0.00,,,0.00,Wunderground v.1.13,2013-01-06 08:00:00,
2013-01-06 03:05:00,36.6,26.7,30.14,ENE,76,2.0,8.0,67,0.00,,,0.00,Wunderground v.1.13,2013-01-06 08:05:00,
2013-01-06 03:10:00,36.6,26.7,30.14,East,93,2.0,2.0,67,0.00,,,0.00,Wunderground v.1.13,2013-01-06 08:10:00,
2013-01-06 03:20:00,36.8,26.9,30.13,ENE,78,1.0,8.0,67,0.00,,,0.00,Wunderground v.1.13,2013-01-06 08:20:00,
2013-01-06 03:25:00,36.8,26.9,30.13,East,89,1.0,8.0,67,0.00,,,0.00,Wunderground v.1.13,2013-01-06 08:25:00,
2013-01-06 03:30:00,36.9,27.0,30.13,East,82,1.0,8.0,67,0.00,,,0.00,Wunderground v.1.13,2013-01-06 08:30:00,
2013-01-06 03:35:00,36.9,27.0,30.13,ENE,71,1.0,1.0,67,0.00,,,0.00,Wunderground v.1.13,2013-01-06 08:35:00,
2013-01-06 03:40:00,36.9,27.0,30.13,East,89,1.0,1.0,67,0.00,,,0.00,Wunderground v.1.13,2013-01-06 08:40:00,
2013-01-06 03:50:00,37.0,26.7,30.12,East,86,1.0,1.0,66,0.00,,,0.00,Wunderground v.1.13,2013-01-06 08:50:00,
2013-01-06 04:00:00,37.2,27.2,30.12,East,86,0.0,8.0,67,0.00,,,0.00,Wunderground v.1.13,2013-01-06 09:00:00,
2013-01-06 04:05:00,37.3,27.0,30.12,East,86,0.0,8.0,66,0.00,,,0.00,Wunderground v.1.13,2013-01-06 09:05:00,
2013-01-06 04:10:00,37.5,27.2,30.12,East,86,0.0,8.0,66,0.00,,,0.00,Wunderground v.1.13,2013-01-06 09:10:00,
2013-01-06 04:15:00,37.5,27.2,30.12,East,86,0.0,8.0,66,0.00,,,0.00,Wunderground v.1.13,2013-01-06 09:15:00,
2013-01-06 04:25:00,37.8,27.1,30.11,East,86,1.0,8.0,65,0.00,,,0.00,Wunderground v.1.13,2013-01-06 09:25:00,
2013-01-06 04:30:00,37.9,27.2,30.11,East,86,1.0,1.0,65,0.00,,,0.00,Wunderground v.1.13,2013-01-06 09:30:00,
2013-01-06 04:35:00,38.0,27.3,30.10,NE,42,1.0,8.0,65,0.00,,,0.00,Wunderground v.1.13,2013-01-06 09:35:00,
2013-01-06 04:40:00,38.2,27.1,30.10,SE,126,1.0,1.0,64,0.00,,,0.00,Wunderground v.1.13,2013-01-06 09:40:00,
2013-01-06 04:45:00,38.3,26.8,30.10,ESE,119,2.0,8.0,63,0.00,,,0.00,Wunderground v.1.13,2013-01-06 09:45:00,
2013-01-06 04:50:00,38.5,27.0,30.10,ESE,102,1.0,8.0,63,0.00,,,0.00,Wunderground v.1.13,2013-01-06 09:50:00,
2013-01-06 04:55:00,38.6,27.1,30.10,SE,127,2.0,2.0,63,0.00,,,0.00,Wunderground v.1.13,2013-01-06 09:55:00,
2013-01-06 05:00:00,38.6,26.7,30.10,ENE,75,2.0,2.0,62,0.00,,,0.00,Wunderground v.1.13,2013-01-06 10:00:00,
2013-01-06 05:05:00,38.8,26.9,30.10,ESE,102,2.0,8.0,62,0.00,,,0.00,Wunderground v.1.13,2013-01-06 10:05:00,
2013-01-06 05:10:00,38.8,26.9,30.10,ESE,107,2.0,2.0,62,0.00,,,0.00,Wunderground v.1.13,2013-01-06 10:10:00,
2013-01-06 05:15:00,38.8,26.9,30.10,East,82,3.0,8.0,62,0.00,,,0.00,Wunderground v.1.13,2013-01-06 10:15:00,
2013-01-06 05:25:00,38.8,26.9,30.09,ESE,112,2.0,2.0,62,0.00,,,0.00,Wunderground v.1.13,2013-01-06 10:25:00,
2013-01-06 05:30:00,38.8,26.9,30.09,East,100,2.0,8.0,62,0.00,,,0.00,Wunderground v.1.13,2013-01-06 10:30:00,
2013-01-06 05:35:00,38.8,26.9,30.09,East,85,2.0,8.0,62,0.00,,,0.00,Wunderground v.1.13,2013-01-06 10:35:00,
2013-01-06 05:40:00,38.8,26.9,30.09,ENE,75,2.0,8.0,62,0.00,,,0.00,Wunderground v.1.13,2013-01-06 10:40:00,
2013-01-06 05:45:00,38.8,26.9,30.09,East,99,2.0,2.0,62,0.00,,,0.00,Wunderground v.1.13,2013-01-06 10:45:00,
2013-01-06 05:50:00,38.8,26.9,30.09,ESE,107,1.0,8.0,62,0.00,,,0.00,Wunderground v.1.13,2013-01-06 10:50:00,
2013-01-06 06:00:00,38.8,26.9,30.09,ESE,104,1.0,1.0,62,0.00,,,0.00,Wunderground v.1.13,2013-01-06 11:00:00,
2013-01-06 06:05:00,38.8,27.3,30.09,East,100,1.0,8.0,63,0.00,,,0.00,Wunderground v.1.13,2013-01-06 11:05:00,
2013-01-06 06:10:00,38.8,27.3,30.09,East,100,1.0,1.0,63,0.00,,,0.00,Wunderground v.1.13,2013-01-06 11:10:00,
2013-01-06 06:15:00,38.8,27.3,30.09,ENE,78,1.0,1.0,63,0.00,,,0.00,Wunderground v.1.13,2013-01-06 11:15:00,
2013-01-06 06:20:00,38.6,27.1,30.09,East,93,0.0,8.0,63,0.00,,,0.00,Wunderground v.1.13,2013-01-06 11:20:00,
2013-01-06 06:25:00,38.6,27.1,30.09,East,93,0.0,8.0,63,0.00,,,0.00,Wunderground v.1.13,2013-01-06 11:25:00,
2013-01-06 06:30:00,38.5,27.0,30.09,East,93,1.0,8.0,63,0.00,,,0.00,Wunderground v.1.13,2013-01-06 11:30:00,
2013-01-06 06:35:00,38.5,27.4,30.09,East,93,1.0,1.0,64,0.00,,,0.00,Wunderground v.1.13,2013-01-06 11:35:00,
2013-01-06 06:40:00,38.5,27.4,30.09,East,92,1.0,8.0,64,0.00,,,0.00,Wunderground v.1.13,2013-01-06 11:40:00,
2013-01-06 06:45:00,38.3,27.2,30.09,NE,48,1.0,8.0,64,0.00,,,0.00,Wunderground v.1.13,2013-01-06 11:45:00,
2013-01-06 06:50:00,38.3,27.2,30.09,East,86,2.0,8.0,64,0.00,,,0.00,Wunderground v.1.13,2013-01-06 11:50:00,
2013-01-06 07:00:00,38.3,27.6,30.09,ENE,73,2.0,8.0,65,0.00,,,0.00,Wunderground v.1.13,2013-01-06 12:00:00,
2013-01-06 07:05:00,38.3,27.6,30.09,East,79,2.0,8.0,65,0.00,,,0.00,Wunderground v.1.13,2013-01-06 12:05:00,
2013-01-06 07:10:00,38.2,27.5,30.09,ESE,107,2.0,2.0,65,0.00,,,0.00,Wunderground v.1.13,2013-01-06 12:10:00,
2013-01-06 07:15:00,38.2,27.5,30.09,East,89,2.0,8.0,65,0.00,,,0.00,Wunderground v.1.13,2013-01-06 12:15:00,
2013-01-06 07:20:00,38.2,27.5,30.09,ESE,114,2.0,8.0,65,0.00,,,0.00,Wunderground v.1.13,2013-01-06 12:20:00,
2013-01-06 07:25:00,38.3,27.6,30.09,ESE,110,2.0,2.0,65,0.00,,,0.00,Wunderground v.1.13,2013-01-06 12:25:00,
2013-01-06 07:30:00,38.3,27.6,30.09,ESE,110,1.0,8.0,65,0.00,,,0.00,Wunderground v.1.13,2013-01-06 12:30:00,
2013-01-06 07:35:00,38.3,27.6,30.10,East,95,2.0,8.0,65,0.00,,,0.00,Wunderground v.1.13,2013-01-06 12:35:00,
2013-01-06 07:40:00,38.3,27.6,30.10,ESE,102,2.0,8.0,65,0.00,,,0.00,Wunderground v.1.13,2013-01-06 12:40:00,
2013-01-06 07:45:00,38.5,27.7,30.10,ENE,69,2.0,8.0,65,0.00,,,0.00,Wunderground v.1.13,2013-01-06 12:45:00,
2013-01-06 07:50:00,38.5,27.7,30.10,East,96,2.0,2.0,65,0.00,,,0.00,Wunderground v.1.13,2013-01-06 12:50:00,
2013-01-06 07:55:00,38.5,27.7,30.10,ESE,114,2.0,2.0,65,0.00,,,0.00,Wunderground v.1.13,2013-01-06 12:55:00,
2013-01-06 08:05:00,38.5,27.7,30.10,East,95,2.0,2.0,65,0.00,,,0.00,Wunderground v.1.13,2013-01-06 13:05:00,
2013-01-06 08:10:00,38.6,27.8,30.10,East,93,2.0,2.0,65,0.00,,,0.00,Wunderground v.1.13,2013-01-06 13:10:00,
2013-01-06 08:15:00,38.6,27.8,30.10,East,88,1.0,8.0,65,0.00,,,0.00,Wunderground v.1.13,2013-01-06 13:15:00,
2013-01-06 08:20:00,38.6,28.2,30.10,East,93,1.0,1.0,66,0.00,,,0.00,Wunderground v.1.13,2013-01-06 13:20:00,
2013-01-06 08:25:00,38.6,28.2,30.10,East,93,1.0,1.0,66,0.00,,,0.00,Wunderground v.1.13,2013-01-06 13:25:00,
2013-01-06 08:35:00,38.6,28.2,30.10,East,79,2.0,8.0,66,0.00,,,0.00,Wunderground v.1.13,2013-01-06 13:35:00,
2013-01-06 08:40:00,38.6,28.2,30.10,ESE,102,3.0,8.0,66,0.00,,,0.00,Wunderground v.1.13,2013-01-06 13:40:00,
2013-01-06 08:45:00,38.6,28.2,30.10,East,89,2.0,2.0,66,0.00,,,0.00,Wunderground v.1.13,2013-01-06 13:45:00,
2013-01-06 08:50:00,38.6,28.2,30.10,East,83,2.0,8.0,66,0.00,,,0.00,Wunderground v.1.13,2013-01-06 13:50:00,
2013-01-06 08:55:00,38.6,28.2,30.10,East,96,3.0,3.0,66,0.00,,,0.00,Wunderground v.1.13,2013-01-06 13:55:00,
2013-01-06 09:05:00,38.8,28.4,30.10,East,95,2.0,8.0,66,0.00,,,0.00,Wunderground v.1.13,2013-01-06 14:05:00,
2013-01-06 09:10:00,38.8,28.4,30.10,East,89,3.0,8.0,66,0.00,,,0.00,Wunderground v.1.13,2013-01-06 14:10:00,
2013-01-06 09:15:00,38.8,28.8,30.10,East,93,3.0,8.0,67,0.00,,,0.00,Wunderground v.1.13,2013-01-06 14:15:00,
2013-01-06 09:20:00,38.8,28.8,30.10,ESE,116,3.0,3.0,67,0.00,,,0.00,Wunderground v.1.13,2013-01-06 14:20:00,
2013-01-06 09:25:00,38.9,28.9,30.10,ESE,104,3.0,8.0,67,0.00,,,0.00,Wunderground v.1.13,2013-01-06 14:25:00,
2013-01-06 09:30:00,38.9,28.9,30.10,NE,37,2.0,8.0,67,0.00,,,0.00,Wunderground v.1.13,2013-01-06 14:30:00,
2013-01-06 09:40:00,38.9,28.9,30.10,ENE,75,3.0,8.0,67,0.00,,,0.00,Wunderground v.1.13,2013-01-06 14:40:00,
2013-01-06 09:50:00,39.2,29.2,30.10,ESE,107,4.0,4.0,67,0.00,,,0.00,Wunderground v.1.13,2013-01-06 14:50:00,
2013-01-06 09:55:00,39.2,29.2,30.10,SE,124,3.0,3.0,67,0.00,,,0.00,Wunderground v.1.13,2013-01-06 14:55:00,
2013-01-06 10:00:00,39.3,29.3,30.10,ESE,109,3.0,8.0,67,0.00,,,0.00,Wunderground v.1.13,2013-01-06 15:00:00,
2013-01-06 10:05:00,39.5,29.4,30.10,NE,54,3.0,8.0,67,0.00,,,0.00,Wunderground v.1.13,2013-01-06 15:05:00,
2013-01-06 10:10:00,39.5,29.1,30.10,East,79,4.0,8.0,66,0.00,,,0.00,Wunderground v.1.13,2013-01-06 15:10:00,
2013-01-06 10:15:00,39.6,29.5,30.10,East,97,4.0,8.0,67,0.00,,,0.00,Wunderground v.1.13,2013-01-06 15:15:00,
2013-01-06 10:20:00,39.8,29.4,30.10,ESE,103,4.0,4.0,66,0.00,,,0.00,Wunderground v.1.13,2013-01-06 15:20:00,
2013-01-06 10:25:00,39.9,29.5,30.10,ESE,123,5.0,8.0,66,0.00,,,0.00,Wunderground v.1.13,2013-01-06 15:25:00,
2013-01-06 10:30:00,39.9,29.5,30.10,ESE,107,5.0,5.0,66,0.00,,,0.00,Wunderground v.1.13,2013-01-06 15:30:00,
2013-01-06 10:40:00,40.2,29.7,30.10,East,85,4.0,4.0,66,0.00,,,0.00,Wunderground v.1.13,2013-01-06 15:40:00,
2013-01-06 10:45:00,40.2,29.7,30.10,ESE,113,5.0,8.0,66,0.00,,,0.00,Wunderground v.1.13,2013-01-06 15:45:00,
2013-01-06 10:50:00,40.3,29.5,30.10,ESE,102,5.0,5.0,65,0.00,,,0.00,Wunderground v.1.13,2013-01-06 15:50:00,
2013-01-06 10:55:00,40.5,29.7,30.10,East,100,5.0,5.0,65,0.00,,,0.00,Wunderground v.1.13,2013-01-06 15:55:00,
2013-01-06 11:00:00,40.6,29.7,30.10,ESE,107,4.0,8.0,65,0.00,,,0.00,Wunderground v.1.13,2013-01-06 16:00:00,
2013-01-06 11:05:00,40.6,29.7,30.09,East,97,4.0,8.0,65,0.00,,,0.00,Wunderground v.1.13,2013-01-06 16:05:00,
2013-01-06 11:15:00,40.9,30.0,30.09,ESE,102,5.0,5.0,65,0.00,,,0.00,Wunderground v.1.13,2013-01-06 16:15:00,
2013-01-06 11:20:00,40.9,30.0,30.09,ENE,75,5.0,8.0,65,0.00,,,0.00,Wunderground v.1.13,2013-01-06 16:20:00,
2013-01-06 11:25:00,41.1,30.2,30.09,East,99,3.0,3.0,65,0.00,,,0.00,Wunderground v.1.13,2013-01-06 16:25:00,
2013-01-06 11:30:00,41.2,30.3,30.09,SE,124,4.0,8.0,65,0.00,,,0.00,Wunderground v.1.13,2013-01-06 16:30:00,
2013-01-06 11:35:00,41.2,30.3,30.08,ENE,64,4.0,8.0,65,0.00,,,0.00,Wunderground v.1.13,2013-01-06 16:35:00,
2013-01-06 11:45:00,41.2,30.3,30.08,ESE,104,5.0,5.0,65,0.00,,,0.00,Wunderground v.1.13,2013-01-06 16:45:00,
2013-01-06 11:55:00,41.2,30.3,30.07,East,86,4.0,8.0,65,0.00,,,0.00,Wunderground v.1.13,2013-01-06 16:55:00,
2013-01-06 12:00:00,41.2,30.3,30.07,ESE,102,5.0,5.0,65,0.00,,,0.00,Wunderground v.1.13,2013-01-06 17:00:00,
2013-01-06 12:05:00,41.2,30.3,30.06,ENE,71,4.0,4.0,65,0.00,,,0.00,Wunderground v.1.13,2013-01-06 17:05:00,
2013-01-06 12:15:00,41.1,30.2,30.06,ESE,106,4.0,4.0,65,0.00,,,0.00,Wunderground v.1.13,2013-01-06 17:15:00,
2013-01-06 12:20:00,41.1,30.2,30.06,ESE,103,5.0,5.0,65,0.00,,,0.00,Wunderground v.1.13,2013-01-06 17:20:00,
2013-01-06 12:25:00,41.1,30.2,30.06,East,97,4.0,4.0,65,0.00,,,0.00,Wunderground v.1.13,2013-01-06 17:25:00,
2013-01-06 12:30:00,40.9,30.0,30.06,ESE,110,4.0,8.0,65,0.00,,,0.00,Wunderground v.1.13,2013-01-06 17:30:00,
2013-01-06 12:35:00,40.9,30.0,30.06,ESE,120,4.0,8.0,65,0.00,,,0.00,Wunderground v.1.13,2013-01-06 17:35:00,
2013-01-06 12:45:00,40.8,29.9,30.06,ESE,123,5.0,8.0,65,0.00,,,0.00,Wunderground v.1.13,2013-01-06 17:45:00,
2013-01-06 12:50:00,40.8,29.9,30.06,SE,124,4.0,4.0,65,0.00,,,0.00,Wunderground v.1.13,2013-01-06 17:50:00,
2013-01-06 13:00:00,40.8,29.9,30.06,East,95,4.0,8.0,65,0.00,,,0.00,Wunderground v.1.13,2013-01-06 18:00:00,
2013-01-06 13:10:00,40.6,30.1,30.06,East,95,4.0,8.0,66,0.00,,,0.00,Wunderground v.1.13,2013-01-06 18:10:00,
2013-01-06 13:20:00,40.3,29.5,30.06,ESE,110,3.0,8.0,65,0.00,,,0.00,Wunderground v.1.13,2013-01-06 18:20:00,
2013-01-06 13:25:00,40.3,29.5,30.06,SE,124,4.0,4.0,65,0.00,,,0.00,Wunderground v.1.13,2013-01-06 18:25:00,
2013-01-06 13:30:00,40.2,29.4,30.06,South,171,3.0,3.0,65,0.00,,,0.00,Wunderground v.1.13,2013-01-06 18:30:00,
2013-01-06 13:40:00,40.1,28.9,30.06,ESE,116,4.0,8.0,64,0.00,,,0.00,Wunderground v.1.13,2013-01-06 18:40:00,
2013-01-06 13:45:00,40.1,28.9,30.06,ESE,109,4.0,8.0,64,0.00,,,0.00,Wunderground v.1.13,2013-01-06 18:45:00,
2013-01-06 13:50:00,40.1,28.9,30.06,SSE,164,4.0,8.0,64,0.00,,,0.00,Wunderground v.1.13,2013-01-06 18:50:00,
2013-01-06 13:55:00,39.9,28.7,30.06,ESE,114,4.0,4.0,64,0.00,,,0.00,Wunderground v.1.13,2013-01-06 18:55:00,
2013-01-06 14:00:00,39.9,28.7,30.06,SE,138,3.0,8.0,64,0.00,,,0.00,Wunderground v.1.13,2013-01-06 19:00:00,
2013-01-06 14:05:00,39.9,28.7,30.07,SE,131,2.0,8.0,64,0.00,,,0.00,Wunderground v.1.13,2013-01-06 19:05:00,
2013-01-06 14:10:00,39.9,28.3,30.07,ESE,121,3.0,8.0,63,0.00,,,0.00,Wunderground v.1.13,2013-01-06 19:10:00,
2013-01-06 14:15:00,39.8,28.6,30.07,SSE,158,4.0,4.0,64,0.00,,,0.00,Wunderground v.1.13,2013-01-06 19:15:00,
2013-01-06 14:25:00,39.1,29.1,30.07,SSE,160,3.0,8.0,67,0.00,,,0.00,Wunderground v.1.13,2013-01-06 19:25:00,
2013-01-06 14:30:00,38.0,28.4,30.07,East,96,4.0,4.0,68,0.00,,,0.00,Wunderground v.1.13,2013-01-06 19:30:00,
2013-01-06 14:35:00,37.3,28.1,30.09,SE,126,3.0,3.0,69,0.00,,,0.00,Wunderground v.1.13,2013-01-06 19:35:00,
2013-01-06 14:40:00,37.0,28.1,30.09,ENE,58,2.0,8.0,70,0.00,,,0.00,Wunderground v.1.13,2013-01-06 19:40:00,
2013-01-06 14:45:00,36.6,27.7,30.09,ESE,121,3.0,3.0,70,0.00,,,0.00,Wunderground v.1.13,2013-01-06 19:45:00,
2013-01-06 14:55:00,35.9,28.4,30.11,ESE,107,3.0,3.0,74,0.00,,,0.00,Wunderground v.1.13,2013-01-06 19:55:00,
2013-01-06 15:05:00,35.3,27.5,30.12,SE,131,2.0,2.0,73,0.00,,,0.00,Wunderground v.1.13,2013-01-06 20:05:00,
2013-01-06 15:10:00,35.2,27.4,30.12,NE,51,2.0,2.0,73,0.00,,,0.00,Wunderground v.1.13,2013-01-06 20:10:00,
2013-01-06 15:15:00,35.2,26.7,30.12,South,184,2.0,8.0,71,0.00,,,0.00,Wunderground v.1.13,2013-01-06 20:15:00,
2013-01-06 15:20:00,35.0,26.5,30.14,ENE,61,3.0,3.0,71,0.00,,,0.00,Wunderground v.1.13,2013-01-06 20:20:00,
2013-01-06 15:25:00,35.0,26.2,30.14,South,171,2.0,8.0,70,0.00,,,0.00,Wunderground v.1.13,2013-01-06 20:25:00,
2013-01-06 15:30:00,34.9,25.8,30.14,North,356,3.0,3.0,69,0.00,,,0.00,Wunderground v.1.13,2013-01-06 20:30:00,
2013-01-06 15:35:00,34.9,25.4,30.14,NNE,32,3.0,8.0,68,0.00,,,0.00,Wunderground v.1.13,2013-01-06 20:35:00,
2013-01-06 15:40:00,34.9,25.0,30.14,ESE,103,3.0,3.0,67,0.00,,,0.00,Wunderground v.1.13,2013-01-06 20:40:00,
2013-01-06 15:45:00,34.9,24.7,30.14,East,100,3.0,8.0,66,0.00,,,0.00,Wunderground v.1.13,2013-01-06 20:45:00,
2013-01-06 15:55:00,34.9,23.9,30.16,SSE,150,3.0,3.0,64,0.00,,,0.00,Wunderground v.1.13,2013-01-06 20:55:00,
2013-01-06 16:00:00,34.9,23.6,30.16,East,89,3.0,3.0,63,0.00,,,0.00,Wunderground v.1.13,2013-01-06 21:00:00,
2013-01-06 16:10:00,34.9,23.6,30.17,NNE,25,2.0,8.0,63,0.00,,,0.00,Wunderground v.1.13,2013-01-06 21:10:00,
2013-01-06 16:20:00,34.7,23.0,30.18,South,179,2.0,2.0,62,0.00,,,0.00,Wunderground v.1.13,2013-01-06 21:20:00,
2013-01-06 16:25:00,34.7,23.0,30.18,South,181,1.0,8.0,62,0.00,,,0.00,Wunderground v.1.13,2013-01-06 21:25:00,
2013-01-06 16:30:00,34.6,22.9,30.18,ESE,110,2.0,8.0,62,0.00,,,0.00,Wunderground v.1.13,2013-01-06 21:30:00,
2013-01-06 16:40:00,34.4,23.1,30.18,ESE,121,2.0,2.0,63,0.00,,,0.00,Wunderground v.1.13,2013-01-06 21:40:00,
2013-01-06 16:45:00,34.3,23.0,30.18,South,172,2.0,2.0,63,0.00,,,0.00,Wunderground v.1.13,2013-01-06 21:45:00,
2013-01-06 16:50:00,34.3,23.0,30.20,South,191,2.0,8.0,63,0.00,,,0.00,Wunderground v.1.13,2013-01-06 21:50:00,
2013-01-06 17:00:00,34.0,23.1,30.20,ESE,110,2.0,2.0,64,0.00,,,0.00,Wunderground v.1.13,2013-01-06 22:00:00,
2013-01-06 17:10:00,33.8,23.3,30.20,SW,229,2.0,8.0,65,0.00,,,0.00,Wunderground v.1.13,2013-01-06 22:10:00,
2013-01-06 17:15:00,33.8,23.3,30.20,WSW,258,3.0,3.0,65,0.00,,,0.00,Wunderground v.1.13,2013-01-06 22:15:00,
2013-01-06 17:20:00,33.8,23.3,30.21,SE,130,2.0,2.0,65,0.00,,,0.00,Wunderground v.1.13,2013-01-06 22:20:00,
2013-01-06 17:25:00,33.7,23.2,30.21,South,191,2.0,8.0,65,0.00,,,0.00,Wunderground v.1.13,2013-01-06 22:25:00,
2013-01-06 17:30:00,33.7,23.2,30.21,SE,127,2.0,8.0,65,0.00,,,0.00,Wunderground v.1.13,2013-01-06 22:30:00,
2013-01-06 17:40:00,33.5,23.0,30.22,SSE,150,2.0,8.0,65,0.00,,,0.00,Wunderground v.1.13,2013-01-06 22:40:00,
2013-01-06 17:45:00,33.5,23.0,30.22,ESE,116,2.0,8.0,65,0.00,,,0.00,Wunderground v.1.13,2013-01-06 22:45:00,
2013-01-06 17:50:00,33.4,22.9,30.23,SE,133,3.0,8.0,65,0.00,,,0.00,Wunderground v.1.13,2013-01-06 22:50:00,
2013-01-06 17:55:00,33.2,23.1,30.23,SE,131,3.0,3.0,66,0.00,,,0.00,Wunderground v.1.13,2013-01-06 22:55:00,
2013-01-06 18:00:00,33.2,22.7,30.23,SSE,167,2.0,2.0,65,0.00,,,0.00,Wunderground v.1.13,2013-01-06 23:00:00,
2013-01-06 18:05:00,33.2,22.7,30.24,SSE,154,2.0,2.0,65,0.00,,,0.00,Wunderground v.1.13,2013-01-06 23:05:00,
2013-01-06 18:15:00,32.9,22.0,30.24,East,100,3.0,3.0,64,0.00,,,0.00,Wunderground v.1.13,2013-01-06 23:15:00,
2013-01-06 18:20:00,32.9,22.4,30.25,SW,233,2.0,8.0,65,0.00,,,0.00,Wunderground v.1.13,2013-01-06 23:20:00,
2013-01-06 18:25:00,32.9,22.4,30.25,ESE,109,2.0,2.0,65,0.00,,,0.00,Wunderground v.1.13,2013-01-06 23:25:00,
2013-01-06 18:30:00,32.9,22.0,30.25,ESE,109,2.0,2.0,64,0.00,,,0.00,Wunderground v.1.13,2013-01-06 23:30:00,
2013-01-06 18:35:00,32.8,21.6,30.26,WSW,247,2.0,8.0,63,0.00,,,0.00,Wunderground v.1.13,2013-01-06 23:35:00,
2013-01-06 18:45:00,32.5,21.3,30.26,ESE,112,2.0,8.0,63,0.00,,,0.00,Wunderground v.1.13,2013-01-06 23:45:00,
2013-01-06 18:50:00,32.4,21.2,30.28,SSE,151,2.0,2.0,63,0.00,,,0.00,Wunderground v.1.13,2013-01-06 23:50:00,
2013-01-06 18:55:00,32.2,21.0,30.28,SE,124,2.0,8.0,63,0.00,,,0.00,Wunderground v.1.13,2013-01-06 23:55:00,
2013-01-06 19:00:00,32.1,20.9,30.28,SE,140,2.0,2.0,63,0.00,,,0.00,Wunderground v.1.13,2013-01-07 00:00:00,
2013-01-06 19:05:00,31.9,20.7,30.29,East,99,2.0,8.0,63,0.00,,,0.00,Wunderground v.1.13,2013-01-07 00:05:00,
2013-01-06 19:15:00,31.6,19.7,30.29,SE,128,2.0,2.0,61,0.00,,,0.00,Wunderground v.1.13,2013-01-07 00:15:00,
2013-01-06 19:25:00,31.5,20.0,30.30,SE,140,1.0,1.0,62,0.00,,,0.00,Wunderground v.1.13,2013-01-07 00:25:00,
2013-01-06 19:30:00,31.3,19.8,30.30,SE,133,1.0,8.0,62,0.00,,,0.00,Wunderground v.1.13,2013-01-07 00:30:00,
2013-01-06 19:35:00,31.2,20.1,30.30,SSE,168,1.0,8.0,63,0.00,,,0.00,Wunderground v.1.13,2013-01-07 00:35:00,
2013-01-06 19:40:00,31.2,20.1,30.30,SSE,167,1.0,8.0,63,0.00,,,0.00,Wunderground v.1.13,2013-01-07 00:40:00,
2013-01-06 19:50:00,31.0,19.9,30.31,SSE,151,1.0,8.0,63,0.00,,,0.00,Wunderground v.1.13,2013-01-07 00:50:00,
2013-01-06 19:55:00,31.0,19.9,30.31,SSE,168,1.0,1.0,63,0.00,,,0.00,Wunderground v.1.13,2013-01-07 00:55:00,
2013-01-06 20:00:00,30.9,19.8,30.31,ESE,116,1.0,1.0,63,0.00,,,0.00,Wunderground v.1.13,2013-01-07 01:00:00,
2013-01-06 20:05:00,30.7,19.6,30.32,SE,126,1.0,1.0,63,0.00,,,0.00,Wunderground v.1.13,2013-01-07 01:05:00,
2013-01-06 20:10:00,30.7,19.6,30.32,SE,131,1.0,8.0,63,0.00,,,0.00,Wunderground v.1.13,2013-01-07 01:10:00,
2013-01-06 20:20:00,30.6,19.9,30.32,SSW,196,1.0,1.0,64,0.00,,,0.00,Wunderground v.1.13,2013-01-07 01:20:00,
2013-01-06 20:25:00,30.6,19.9,30.32,SSW,199,1.0,1.0,64,0.00,,,0.00,Wunderground v.1.13,2013-01-07 01:25:00,
2013-01-06 20:30:00,30.4,19.7,30.32,SSE,155,1.0,8.0,64,0.00,,,0.00,Wunderground v.1.13,2013-01-07 01:30:00,
2013-01-06 20:35:00,30.4,19.3,30.33,ESE,123,1.0,8.0,63,0.00,,,0.00,Wunderground v.1.13,2013-01-07 01:35:00,
2013-01-06 20:40:00,30.4,19.7,30.33,SE,140,1.0,1.0,64,0.00,,,0.00,Wunderground v.1.13,2013-01-07 01:40:00,
2013-01-06 20:50:00,30.3,19.9,30.34,SSE,150,1.0,8.0,65,0.00,,,0.00,Wunderground v.1.13,2013-01-07 01:50:00,
2013-01-06 20:55:00,30.3,19.9,30.34,South,182,2.0,8.0,65,0.00,,,0.00,Wunderground v.1.13,2013-01-07 01:55:00,
2013-01-06 21:00:00,30.3,19.9,30.34,ESE,121,2.0,2.0,65,0.00,,,0.00,Wunderground v.1.13,2013-01-07 02:00:00,
2013-01-06 21:05:00,30.3,19.9,30.34,SSE,162,1.0,8.0,65,0.00,,,0.00,Wunderground v.1.13,2013-01-07 02:05:00,
2013-01-06 21:10:00,30.1,19.7,30.34,South,184,1.0,1.0,65,0.00,,,0.00,Wunderground v.1.13,2013-01-07 02:10:00,
2013-01-06 21:15:00,30.1,20.1,30.34,South,178,0.0,8.0,66,0.00,,,0.00,Wunderground v.1.13,2013-01-07 02:15:00,
2013-01-06 21:20:00,30.1,20.5,30.35,South,178,0.0,8.0,67,0.00,,,0.00,Wunderground v.1.13,2013-01-07 02:20:00,
2013-01-06 21:25:00,30.1,20.1,30.35,SSE,158,0.0,8.0,66,0.00,,,0.00,Wunderground v.1.13,2013-01-07 02:25:00,
2013-01-06 21:30:00,30.1,19.7,30.35,North,359,1.0,8.0,65,0.00,,,0.00,Wunderground v.1.13,2013-01-07 02:30:00,
2013-01-06 21:35:00,30.1,19.7,30.35,SSE,162,1.0,1.0,65,0.00,,,0.00,Wunderground v.1.13,2013-01-07 02:35:00,
2013-01-06 21:40:00,30.1,20.1,30.35,SSE,161,1.0,1.0,66,0.00,,,0.00,Wunderground v.1.13,2013-01-07 02:40:00,
2013-01-06 21:45:00,30.1,20.5,30.35,SW,227,0.0,8.0,67,0.00,,,0.00,Wunderground v.1.13,2013-01-07 02:45:00,
2013-01-06 21:55:00,30.3,20.6,30.36,SE,127,1.0,8.0,67,0.00,,,0.00,Wunderground v.1.13,2013-01-07 02:55:00,
2013-01-06 22:00:00,30.3,20.3,30.36,SE,143,1.0,1.0,66,0.00,,,0.00,Wunderground v.1.13,2013-01-07 03:00:00,
2013-01-06 22:05:00,30.1,20.1,30.36,South,185,1.0,1.0,66,0.00,,,0.00,Wunderground v.1.13,2013-01-07 03:05:00,
2013-01-06 22:10:00,30.1,20.1,30.36,ESE,110,1.0,8.0,66,0.00,,,0.00,Wunderground v.1.13,2013-01-07 03:10:00,
2013-01-06 22:15:00,30.1,20.1,30.36,SE,138,1.0,1.0,66,0.00,,,0.00,Wunderground v.1.13,2013-01-07 03:15:00,
2013-01-06 22:25:00,30.1,20.1,30.36,SE,133,1.0,8.0,66,0.00,,,0.00,Wunderground v.1.13,2013-01-07 03:25:00,
2013-01-06 22:30:00,30.1,20.1,30.36,SSE,154,1.0,1.0,66,0.00,,,0.00,Wunderground v.1.13,2013-01-07 03:30:00,
2013-01-06 22:35:00,30.1,20.5,30.37,SSE,160,1.0,1.0,67,0.00,,,0.00,Wunderground v.1.13,2013-01-07 03:35:00,
2013-01-06 22:40:00,30.1,20.5,30.37,SE,136,1.0,8.0,67,0.00,,,0.00,Wunderground v.1.13,2013-01-07 03:40:00,
2013-01-06 22:45:00,30.1,20.5,30.37,SSE,154,0.0,8.0,67,0.00,,,0.00,Wunderground v.1.13,2013-01-07 03:45:00,
2013-01-06 22:55:00,30.1,20.5,30.37,SSE,157,0.0,8.0,67,0.00,,,0.00,Wunderground v.1.13,2013-01-07 03:55:00,
2013-01-06 23:00:00,30.1,20.5,30.37,SSE,158,0.0,8.0,67,0.00,,,0.00,Wunderground v.1.13,2013-01-07 04:00:00,
2013-01-06 23:05:00,30.3,20.6,30.38,SE,144,0.0,8.0,67,0.00,,,0.00,Wunderground v.1.13,2013-01-07 04:05:00,
2013-01-06 23:10:00,30.3,21.0,30.38,SSE,148,0.0,8.0,68,0.00,,,0.00,Wunderground v.1.13,2013-01-07 04:10:00,
2013-01-06 23:15:00,30.3,20.6,30.38,SSE,147,0.0,8.0,67,0.00,,,0.00,Wunderground v.1.13,2013-01-07 04:15:00,
2013-01-06 23:25:00,30.4,21.1,30.38,SE,133,0.0,8.0,68,0.00,,,0.00,Wunderground v.1.13,2013-01-07 04:25:00,
2013-01-06 23:30:00,30.4,21.1,30.38,SE,134,0.0,8.0,68,0.00,,,0.00,Wunderground v.1.13,2013-01-07 04:30:00,
2013-01-06 23:35:00,30.4,20.7,30.39,SE,133,0.0,8.0,67,0.00,,,0.00,Wunderground v.1.13,2013-01-07 04:35:00,
2013-01-06 23:40:00,30.4,21.1,30.39,South,174,0.0,8.0,68,0.00,,,0.00,Wunderground v.1.13,2013-01-07 04:40:00,
2013-01-06 23:45:00,30.4,21.1,30.39,South,172,0.0,8.0,68,0.00,,,0.00,Wunderground v.1.13,2013-01-07 04:45:00,
2013-01-06 23:50:00,30.4,21.1,30.39,SE,145,0.0,8.0,68,0.00,,,0.00,Wunderground v.1.13,2013-01-07 04:50:00,